Pucha Pucha, Argentina
Current Conditions -  °F | °C
As of 2:00 AM on Saturday 25 Oct 2014 (Local Time) from SCAT Reporting Station
NA  
Wind Chill: 14°   Ceiling: NA
Heat Index: 14°   Visibility: 6mi
Dew Point: 12°   Wind: 2mph
Humidity: 88%   Direction: NA
Pressure: 29.91"   Gusts: NA
Location:  28.34°S, 69.22°W
Report Text: SCAT 250500Z AUTO VRB02KT 9999 // ///011 14/12 Q1013
Loading
Personal Weather Stations






























Interactive Weather Map
Tropical Storm Tracking
New forecast layout! Learn more

10-Day Weather Forecast

Advertisements
Track Severe Weather on mobile